BAW7510 YBBN-YSSY

Flight info

Callsign BAW7510
Flight time N/A
Altitude 38000
Route YBBN/19L 2748S15310E HUUGO H91 IGDAM H652 BOREE BORE4A/34R
Aircraft L101/H-SDFGHIRWXY/S

Departure

Time N/A
Airport Brisbane International Airport (YBBN)

Arrival

Time 2026-05-01 07:36
Airport Sydney Kingsford Smith International Airport (YSSY)
Time Latitude Longitude Altitude Speed Heading
2026-05-01 07:23 -33.82846 151.23178 6022 ft 276 kts 153°
2026-05-01 07:23 -33.86146 151.25518 6010 ft 277 kts 144°
2026-05-01 07:24 -33.87740 151.26809 6001 ft 276 kts 143°
2026-05-01 07:24 -33.89327 151.28118 5993 ft 276 kts 142°
2026-05-01 07:24 -33.90911 151.29436 5997 ft 276 kts 143°
2026-05-01 07:24 -33.92487 151.30753 5996 ft 275 kts 143°
2026-05-01 07:25 -33.94062 151.32073 5997 ft 275 kts 143°
2026-05-01 07:25 -33.95637 151.33396 5994 ft 275 kts 143°
2026-05-01 07:25 -33.97210 151.34716 5994 ft 275 kts 143°
2026-05-01 07:25 -33.98733 151.35991 5996 ft 275 kts 143°
2026-05-01 07:26 -34.00339 151.37334 5997 ft 275 kts 143°
2026-05-01 07:26 -34.01944 151.38611 5853 ft 278 kts 151°
2026-05-01 07:26 -34.03811 151.39286 5463 ft 281 kts 171°
2026-05-01 07:26 -34.05749 151.39403 5135 ft 279 kts 179°
2026-05-01 07:27 -34.07691 151.39317 4806 ft 278 kts 181°
2026-05-01 07:27 -34.09622 151.39158 4467 ft 277 kts 182°
2026-05-01 07:27 -34.11538 151.38971 4137 ft 276 kts 183°
2026-05-01 07:27 -34.13434 151.38774 3809 ft 269 kts 183°
2026-05-01 07:28 -34.15265 151.38574 3493 ft 260 kts 183°
2026-05-01 07:28 -34.17038 151.38376 3181 ft 252 kts 183°
2026-05-01 07:28 -34.18766 151.38179 2891 ft 247 kts 183°
2026-05-01 07:28 -34.20464 151.37984 2622 ft 249 kts 183°
2026-05-01 07:29 -34.22167 151.37582 2283 ft 253 kts 204°
2026-05-01 07:29 -34.23532 151.36310 2031 ft 247 kts 234°
2026-05-01 07:29 -34.24167 151.34433 1975 ft 242 kts 265°
2026-05-01 07:29 -34.24102 151.32339 2094 ft 260 kts 287°
2026-05-01 07:30 -34.23374 151.30326 2047 ft 261 kts 304°
2026-05-01 07:30 -34.22346 151.28527 1996 ft 260 kts 310°
2026-05-01 07:30 -34.21233 151.26814 1995 ft 258 kts 311°
2026-05-01 07:30 -34.19959 151.25308 1951 ft 256 kts 333°
2026-05-01 07:31 -34.18308 151.24721 1963 ft 245 kts 357°
2026-05-01 07:31 -34.13206 151.23710 1986 ft 248 kts 348°
2026-05-01 07:32 -34.10226 151.22889 2029 ft 190 kts 351°
2026-05-01 07:32 -34.09020 151.22577 2184 ft 162 kts 352°
2026-05-01 07:33 -34.06869 151.22013 2012 ft 159 kts 351°
2026-05-01 07:33 -34.05776 151.21723 1955 ft 162 kts 351°
2026-05-01 07:33 -34.03566 151.21124 1302 ft 157 kts 351°
2026-05-01 07:34 -34.02514 151.20844 1115 ft 158 kts 351°
2026-05-01 07:34 -34.00716 151.20374 744 ft 157 kts 350°
2026-05-01 07:34 -33.99289 151.19983 500 ft 161 kts 352°
2026-05-01 07:35 -33.98205 151.19694 296 ft 158 kts 351°
2026-05-01 07:35 -33.97487 151.19504 154 ft 161 kts 351°
2026-05-01 07:35 -33.96406 151.19215 27 ft 151 kts 350°
2026-05-01 07:35 -33.95507 151.18978 29 ft 108 kts 347°
2026-05-01 07:36 -33.95013 151.18835 27 ft 11 kts 322°
2026-05-01 07:36 -33.94994 151.18803 29 ft 0 kts 297°
2026-05-01 07:36 -33.94990 151.18793 29 ft 4 kts 291°
2026-05-01 07:36 -33.94991 151.18742 28 ft 9 kts 262°
2026-05-01 07:37 -33.95013 151.18602 31 ft 3 kts 258°
2026-05-01 07:37 -33.95025 151.18556 31 ft 8 kts 241°
2026-05-01 07:37 -33.95083 151.18499 30 ft 14 kts 218°
2026-05-01 07:38 -33.95123 151.18399 30 ft 16 kts 257°
2026-05-01 07:38 -33.95151 151.18254 31 ft 10 kts 257°
2026-05-01 07:38 -33.95169 151.18067 31 ft 11 kts 303°
2026-05-01 07:39 -33.95087 151.18030 31 ft 15 kts 347°
2026-05-01 07:39 -33.94958 151.17999 26 ft 23 kts 347°
2026-05-01 07:39 -33.94648 151.17917 28 ft 15 kts 347°
2026-05-01 07:40 -33.94542 151.17889 28 ft 17 kts 348°
2026-05-01 07:40 -33.94421 151.17912 28 ft 18 kts 356°
2026-05-01 07:40 -33.94301 151.17886 29 ft 5 kts 349°
2026-05-01 07:40 -33.94264 151.17876 29 ft 7 kts 343°
2026-05-01 07:41 -33.94194 151.17856 29 ft 13 kts 348°
2026-05-01 07:41 -33.94181 151.17852 29 ft 0 kts 348°
2026-05-01 07:41 -33.94088 151.17828 28 ft 6 kts 348°
2026-05-01 07:42 -33.94036 151.17816 28 ft 17 kts 346°
2026-05-01 07:42 -33.93928 151.17787 27 ft 3 kts 347°
2026-05-01 07:42 -33.93916 151.17784 26 ft 5 kts 347°